Location: ??????
(41.3747°N, 22.5491°E)
Time: 15:00:44
(UTC+00:00)

Cosmos 1939 Rocket - Pass Details

Date: 01 December 2020
Orbit: 532 x 584 km, 97.4° (Epoch: 20 January)

Event Time Altitude Azimuth Distance (km) Brightness Sun altitude
Rises 15:54:20 0° 141° (SE) 2,672 6.1 -9.9°
Reaches altitude 10° 15:56:37 10° 130° (SE) 1,791 5.1 -10.3°
Maximum altitude 15:59:57 28° 70° (ENE) 1,026 3.6 -10.9°
Drops below altitude 10° 16:03:21 10° 11° (N) 1,824 5.2 -11.5°
Sets 16:05:41 0° 360° (N) 2,731 6.2 -11.9°
